Meteo Giornale » Osservazioni meteo Danimarca » Soervaag-Vagar
ore: 22:20 - Osservazioni Meteo Soervaag-Vagar
Lat. 62° 4' N Lon. 7° 17' W Alt. 85 metri s.l.m.
8 °C
Coperto
Temp. 24 Ore
7 °C
14 °C
Nord
20.3 Km/h
Dew point 7 °C
Umidità 93 %
Visibilità 10 Km
Il sole sorge alle ore 06:16
Il sole tramonta alle ore 20:42
| Data e Ora | Cielo e Fenomeni | T °C | DP °C | Um. % | Pres. hPa | Vis. km | Vento km/h | |
|---|---|---|---|---|---|---|---|---|
| Oggi h: 22:20 | Coperto | 8 | 7 | 93 | 1004 | 10 | N 20.3 | |
| Oggi h: 21:50 | Coperto | 8 | 7 | 93 | 1004 | 10 | N 24 | |
| Oggi h: 21:20 | Molto Nuvoloso | 8 | 7 | 93 | 1003 | 10 | N 29.6 | |
| Oggi h: 20:50 | Pioviggine | 8 | 7 | 93 | 1003 | 10 | N 31.5 | |
| Oggi h: 20:20 | Coperto | 9 | 8 | 93 | 1003 | 10 | N/NO 25.9 | |
| Oggi h: 19:50 | Coperto | 9 | 8 | 93 | 1003 | 10 | N/NO 29.6 | |
| Oggi h: 19:20 | Molto Nuvoloso | 10 | 9 | 93 | 1002 | 10 | N/NO 31.5 | |
| Oggi h: 18:50 | Coperto | 10 | 9 | 93 | 1002 | 10 | N/NO 35.2 | |
| Oggi h: 18:20 | Coperto | 10 | 9 | 93 | 1001 | 10 | N/NO 25.9 | |
| Oggi h: 17:50 | Coperto | 11 | 11 | 100 | 1001 | 10 | O/NO 14.8 | |
| Oggi h: 17:20 | Molto Nuvoloso | 12 | 11 | 93 | 1001 | 10 | O 16.7 | |
| Oggi h: 16:50 | Poco Nuvoloso | 13 | 12 | 93 | 1001 | 10 | N 5.5 | |
| Oggi h: 16:20 | Foschia | 14 | 13 | 93 | 1001 | 5 | N 3.7 | |
| Oggi h: 15:50 | Nebbia | 12 | 11 | 93 | 1001 | 0.9 | O/NO 11.1 | |
| Oggi h: 15:20 | Pioviggine Foschia | 12 | 11 | 93 | 1001 | 2 | O/NO 11.1 | |
| Oggi h: 14:50 | Coperto | 13 | 12 | 93 | 1001 | 7 | N 3.7 | |
| Oggi h: 14:20 | Coperto | 12 | 12 | 100 | 1001 | 7 | SE 7.4 | |
| Oggi h: 13:50 | Coperto | 12 | 12 | 100 | 1001 | 7 | SE 13 | |
| Oggi h: 13:20 | Coperto | 12 | 12 | 100 | 1001 | 7 | S/SE 20.3 | |
| Oggi h: 12:50 | Pioggia | 12 | 11 | 93 | 1001 | 6 | SE 18.5 | |
| Oggi h: 12:22 | Pioggia Foschia | 11 | 11 | 100 | 1001 | 5 | E 27.8 | |
| Oggi h: 11:51 | Pioggia Foschia | 11 | 10 | 93 | 1001 | 5 | E/SE 27.8 | |
| Oggi h: 11:23 | Pioggia | 11 | 9 | 87 | 1001 | 6 | E 33.3 | |
| Oggi h: 10:20 | Pioggia | 10 | 9 | 93 | 1002 | 6 | E/SE 42.6 | |
| Oggi h: 09:50 | Pioggia nelle vicinanze | 10 | 8 | 87 | 1002 | 10 | E 33.3 | |
| Oggi h: 09:20 | Pioggia | 10 | 8 | 87 | 1002 | 10 | E 31.5 | |
| Oggi h: 08:53 | Pioggia | 10 | 7 | 81 | 1003 | 10 | E 33.3 | |
| Oggi h: 08:20 | Pioggia | 9 | 7 | 87 | 1003 | 10 | E/NE 25.9 | |
| Oggi h: 07:51 | Pioggia | 8 | 7 | 93 | 1003 | 10 | NE 27.8 | |
| Oggi h: 07:20 | Pioggia | 8 | 6 | 87 | 1004 | 10 | NE 16.7 | |
| Oggi h: 06:50 | Pioggia | 8 | 6 | 87 | 1005 | 6 | NE 14.8 | |
| Oggi h: 06:20 | Pioggia | 8 | 6 | 87 | 1005 | 10 | N 9.3 | |
| Oggi h: 05:50 | Pioggia | 8 | 6 | 87 | 1005 | 10 | N 3.7 | |
| Oggi h: 05:20 | Pioggia | 7 | 6 | 93 | 1005 | 8 | N 3.7 | |
| Oggi h: 04:50 | Pioggia | 8 | 6 | 87 | 1005 | 5 | N 5.5 | |
| Oggi h: 04:20 | Pioviggine | 8 | 6 | 87 | 1005 | 10 | NE 9.3 | |
| Oggi h: 03:50 | Coperto | 9 | 5 | 75 | 1006 | 10 | E/NE 14.8 | |
| Oggi h: 03:20 | Coperto | 8 | 5 | 81 | 1006 | 10 | NE 9.3 | |
| Oggi h: 02:50 | Pioggia | 8 | 5 | 81 | 1006 | 10 | N 5.5 | |
| Oggi h: 02:20 | Pioggia | 8 | 4 | 75 | 1007 | 10 | N 5.5 | |
| Oggi h: 01:50 | Pioggia | 8 | 4 | 75 | 1007 | 10 | N 5.5 | |
| Oggi h: 01:20 | Coperto | 8 | 4 | 75 | 1007 | 10 | N 5.5 | |
| Oggi h: 00:50 | Coperto | 8 | 4 | 75 | 1007 | 10 | N 5.5 | |
| Oggi h: 00:20 | Coperto | 8 | 3 | 70 | 1007 | 10 | N 3.7 | |
| Ieri h: 23:50 | Molto Nuvoloso | 8 | 4 | 75 | 1008 | 10 | NE 7.4 | |
| Ieri h: 23:20 | Coperto | 8 | 4 | 75 | 1008 | 10 | NE 9.3 | |
| Ieri h: 22:50 | Molto Nuvoloso | 8 | 3 | 70 | 1008 | 10 | N 3.7 | |



